Tracking 22881 objects as of 19-Apr-2021
HD Live streaming from Space Station
objects crossing your sky now

STARLINK-1438

Track STARLINK-1438 now!
10-day predictions
STARLINK-1438 is classified as:


NORAD ID: 45715
Int'l Code: 2020-035BL
Perigee: 252.0 km
Apogee: 263.0 km
Inclination: 53.0 °
Period: 89.5 minutes
Semi major axis: 6628 km
RCS: Unknown
Launch date: June 4, 2020
Source: United States (US)
Launch site: AIR FORCE EASTERN TEST RANGE (AFETR)
aabbcc
Your satellite tracking list
Your tracking list is empty




NASA's NSSDC Master Catalog

Two Line Element Set (TLE):
1 45715U 20035BL  21108.85190138 -.00007683  11524-4 -44938-5 0  9995
2 45715  52.9728 359.4616 0008280 273.6035  86.4051 16.08716531 51429
Source of the keplerian elements: AFSPC